Etusivu
METAR-TAF:

METAR-TAF

Lentoasemat :

Sotilaslentoasema

Tafraoui, Algeria

Leveyspiiri: 35-32-33N, Pituuspiiri: 000-31-56W, korkeus merenpinnasta: 112 m

Tämänhetkinen sää

Tämä raportti tehtiin 1 tunti ja 0 minuuttia sitten, kello 16.00 UTC
Tuuli 14 kn koillisesta
Lämpötila 33°C
Kosteus 39%
Ilmanpaine 1015 hPa
Näkyvyys 10 km tai enemmän
Muutamia pilviä 2600 ft:n korkeudessa

METAR: DAOL 221600Z 04014KT 9999 FEW026 33/17 Q1015

Aika: 18:00 (17:00 UTC)


TAF: puuttuu

Säähavainnot ja -ennusteet yli 4000 lentoasemalta (METAR- ja TAF-raportit).

Käytössä olevat sääasemat on merkitty karttaan keltaisilla ja punaisilla pisteillä.

Aseta hiiri pisteen päälle nähdäksesi sääaseman nimen.

Klikkaa sitten nähdäksesi säähavainnot ja -ennusteet.

Kartan vaihtaminen: klikkaa mustalla rastilla varustettuja vihreitä pisteitä, niin voit zoomata sisään; viivalla varustettua vihreää pistettä, niin voit zoomata ulos tai vihreitä nuolia, niin pääset viereisille kartoille.


METAR-TAF: